Flight Briefing for CPX714

Departure Arrival
José María Córdova International Airport (SKRG)
Click to view FAA NOTAMS
Miami International Airport (KMIA)
Click to view FAA NOTAMS
Departure Time Arrival Time
1430 UTC 1800 UTC
Aircraft Distance
B767-300BDSF 1271nm
Departure METAR Arrival METAR
SKRG 181600Z 08004KT 5000 VCSH BKN007 BKN080 17/16 A3031 REDZ RMK VCSH/SE/S KMIA 181553Z 29005KT 10SM FEW017 23/20 A3007 RMK AO2 SLP181 T02330200
Suggested Route
BUTAL UQ105 KILER UG430 UCA UA301 URSUS FLIPR5


View recent IFR Routes data
Notes



Charts and Procedures

Charts for SKRG
No chart available
Charts for KMIA
No chart available

Windy.com Weather Map